weather.gov     
National Weather Service

Terminal Aerodrome Forecast
NWS Homepage
This page is being discontinued on March 12, 2014.
The same data is available at this site. Please update your bookmarks.
Thank you, and we apologize for the inconvenience.
Please send an email to SR-SRH.Webmaster@noaa.gov with any concerns.


Current Version
Previous Version:    01  02  03  04  05  06  07  08  09  10  11  12  13  14  15  16  17  18  19  20  21  22  23  24  25  26  27  28  29  
[Printable]
451
FTUS45 KTFX 201700
TAFLWT
TAF
KLWT 201734Z 2018/2118 VRB05KT P6SM SCT080 BKN150
     FM202100 VRB05KT P6SM VCTS SCT070CB BKN110
     FM210100 33006KT P6SM -RA SCT040 BKN060
      TEMPO 2102/2105 5SM -RA BR SCT020 OVC040
     FM211000 VRB04KT P6SM SCT070 BKN150=


U.S. Dept. of Commerce
NOAA National Weather Service
1325 East West Highway
Silver Spring, MD 20910
E-mail: w-nws.webmaster@noaa.gov
Page last modified: May 16, 2007
NATIONAL WEATHER SERVICE: for Safety, for Work, for Fun - FOR LIFE